Location: El Carrer d�Abaix
(41.5797°N, 2.1791°E)
Time: 10:49:16
(UTC+00:00)

STARLINK-1378 - Pass Details

Date: 06 October 2020
Orbit: 549 x 550 km, 53.0° (Epoch: 21 October)

Event Time Altitude Azimuth Distance (km) Brightness Sun altitude
Exits shadow 04:32:13 11° 322° (NW) 1,734 5.9 -16.0°
Maximum altitude 04:34:32 17° 359° (N) 1,449 5.8 -15.6°
Drops below altitude 10° 04:37:15 10° 40° (NE) 1,825 6.9 -15.1°
Sets 04:40:10 0° 61° (ENE) 2,719 8.5 -14.6°
